Hlavní strana
METAR-TAF:

METAR-TAF

Letiště :

Downtown_Memorial_Airport

Spartanburg, Jižní Karolína, Spojené státy americké

zeměpisná šířka: 34-55N, zeměpisná délka: 081-57W, výška: 246 m

Aktuální stav počasí

Zpráva byla vytvořena před 12 minutami, v 02:15 UTC
Bezvětří
Teplota 21°C
Vlhkost vzduchu 94%
Tlak 1018 hPa
Viditelnost: 16.1 km
Oblačno až skoro zataženo ve výšce 12000 ft
bouřka v blíkosti

METAR: KSPA 300215Z AUTO 00000KT 10SM VCTS BKN120 21/20 A3005 RMK AO2 LTG DSNT SE

Čas: 22:27 (02:27 UTC)


TAF: chybějící

Stav a předpovědi počasí z více než 4 000 letišť (zprávy METAR a TAF).

Červené a žluté tečky na mapě představují dostupné meteorologické stanice.

Když kurzor umístíte na tečku, zobrazí se název stanice.

Pak kliknutím zobrazíte stav a předpověď počasí.

Chcete-li změnit mapu, kliknutím na zelené tlačítko se znaménkem +mapu přiblížíte, kliknutím na zelené tlačítko se znaménkem – mapu oddálíte a kliknutím na zelené šipky přejdete na sousední mapy.


METAR-TAF: